Pian Rosa, Italy

10:46 AM CET on November 20, 2017 (GMT +0100)
Pian Rosa

Weather History for LIMH - April, 2013

Change the Weather History Date:

Monday, April 29, 2013

  Actual Average Record
Temperature  
Mean Temperature 26 °F -  
Max Temperature 28 °F 29 °F 35 °F (1999)
Min Temperature 23 °F 18 °F 6 °F (2017)
Degree Days  
Heating Degree Days 40    
Moisture  
Dew Point 23 °F    
Average Humidity 88    
Maximum Humidity 93    
Minimum Humidity 77    
Precipitation  
Precipitation 0.03 in - - ()
Sea Level Pressure  
Sea Level Pressure 30.19 in    
Wind  
Wind Speed 29 mph ()    
Max Wind Speed 104 mph    
Max Gust Speed -    
Visibility 0.1 miles    
Events Fog , Snow    
Averages and records for this station are not official NWS values.
T = Trace of Precipitation, MM = Missing Value Source: Averaged Metar Reports

Daily Weather History Graph

Daily Weather History Graph

Search for Another Location

Airport or City:

Trip Planner

Search our weather history database for the weather conditions in past years. The results will help you decide how hot, cold, wet, or windy it might be!

Date:

Astronomy

Apr. 29, 2013 Rise Set
Actual Time 6:19 AM CEST 8:34 PM CEST
Civil Twilight 5:46 AM CEST 9:07 PM CEST
Nautical Twilight 5:05 AM CEST 9:48 PM CEST
Astronomical Twilight 4:20 AM CEST 10:34 PM CEST
Moon No Moon Rise 9:16 AM CEST (4/29)
Length of Visible Light 15h 20m
Length of Day
14h 15m
Waning Gibbous, 82% of the Moon is Illuminated
Apr 29
Waning Gibbous
May 2
Last Quarter
May 10
New
May 18
First Quarter
May 25
Full

Hourly Weather History & Observations

Time (CEST) Temp. Windchill Dew Point Humidity Pressure Visibility Wind Dir Wind Speed Gust Speed Precip Events Conditions
12:55 AM 23.0 °F 6.6 °F 19.4 °F 86% 30.06 in 0.1 mi SSE 25.3 mph - N/A Fog , Snow Light Snow
1:55 AM 23.0 °F 6.0 °F 21.2 °F 93% 30.09 in 0.1 mi South 27.6 mph - N/A Fog , Snow Light Snow
2:00 AM 23 °F - 20 °F 85%  in 0 mi South 27.6 mph - - Snow Light Snow
2:55 AM 23.0 °F 6.6 °F 21.2 °F 93% 30.09 in 0.1 mi South 25.3 mph - N/A Fog , Snow Light Snow
3:55 AM 23.0 °F 5.7 °F 21.2 °F 93% 30.12 in 0.1 mi SSW 28.8 mph - N/A Fog , Snow Light Snow
4:55 AM 24.8 °F 8.1 °F 21.2 °F 86% 30.12 in 0.1 mi South 28.8 mph - N/A Fog , Snow Light Snow
5:00 AM 24 °F - 21 °F 82%  in 0 mi South 28.8 mph - - Snow Light Snow
5:55 AM 24.8 °F 7.6 °F 23.0 °F 93% 30.12 in 0.1 mi South 31.1 mph - N/A Fog , Snow Light Snow
6:55 AM 24.8 °F 8.4 °F 23.0 °F 93% 30.12 in 0.1 mi South 27.6 mph - N/A Fog , Snow Light Snow
7:55 AM 24.8 °F 8.1 °F 23.0 °F 93% 30.12 in 0.1 mi South 28.8 mph - N/A Fog , Snow Light Snow
8:00 AM 25 °F - 23 °F 87%  in 0 mi South 28.8 mph - - Snow Light Snow
8:55 AM 24.8 °F 11.5 °F 23.0 °F 93% 30.15 in 0.1 mi SSW 17.3 mph - N/A Fog , Snow Light Snow
9:55 AM 24.8 °F 10.3 °F 23.0 °F 93% 30.15 in 0.1 mi SSE 20.7 mph - N/A Fog , Snow Light Snow
10:55 AM 26.6 °F 12.7 °F 21.2 °F 80% 30.18 in 0.1 mi South 20.7 mph - N/A Fog , Snow Light Snow
11:00 AM 26 °F - 22 °F 77%  in 0 mi South 20.7 mph - - Snow Light Snow
11:55 AM 28.4 °F 13.3 °F 23.0 °F 80% 30.18 in 0.1 mi South 27.6 mph - N/A Fog , Snow Light Snow
12:55 PM 28.4 °F 10.2 °F 23.0 °F 80% 30.18 in 0.1 mi South 43.7 mph - N/A Fog , Snow Light Snow
1:55 PM 28.4 °F 11.2 °F 24.8 °F 86% 30.21 in 0.1 mi South 38.0 mph - N/A Fog , Snow Light Snow
2:00 PM 28 °F - 25 °F 84%  in 0 mi South 38.0 mph - - Snow Light Snow
2:55 PM 28.4 °F 12.3 °F 24.8 °F 86% 30.24 in 0.1 mi SSW 32.2 mph - N/A Fog , Snow Light Snow
3:55 PM 28.4 °F - 24.8 °F 86% 30.24 in 0.1 mi South 103.6 mph - N/A Fog , Snow Light Snow
4:55 PM 28.4 °F 9.5 °F 24.8 °F 86% 30.24 in 0.1 mi South 48.3 mph - N/A Fog , Snow Light Snow
5:00 PM 28 °F - 26 °F 87%  in 0 mi South 48.3 mph - - Snow Light Snow
5:55 PM 26.6 °F 8.3 °F 24.8 °F 93% 30.27 in 0.1 mi South 40.3 mph - N/A Fog , Snow Light Snow
6:55 PM 26.6 °F 7.9 °F 24.8 °F 93% 30.27 in 0.1 mi South 42.6 mph - N/A Fog , Snow Light Snow
7:55 PM 26.6 °F 7.7 °F 24.8 °F 93% 30.27 in 0.1 mi South 43.7 mph - N/A Fog Light Freezing Fog
8:00 PM 27 °F - 25 °F 87%  in 0 mi South 43.7 mph - - Fog Heavy Fog
8:55 PM 26.6 °F 7.3 °F 24.8 °F 93% 30.27 in 0.1 mi South 46.0 mph - N/A Fog Light Freezing Fog
9:55 PM 26.6 °F 7.7 °F 24.8 °F 93% 30.27 in 0.1 mi South 43.7 mph - N/A Fog , Snow Light Snow
10:55 PM 26.6 °F 9.3 °F 24.8 °F 93% 30.30 in 0.1 mi South 34.5 mph - N/A Fog , Snow Light Snow
11:00 PM 26 °F - 24 °F 91%  in 0 mi South 34.5 mph - - Snow Light Snow
11:55 PM 26.6 °F 9.3 °F 24.8 °F 93% 30.30 in 0.1 mi South 34.5 mph - N/A Fog , Snow Light Snow